Regional Weather Roundup
Issued by NWS

Home | Current Version | Previous Version | Graphics & Text | Print | Product List | Glossary On
Versions: 1 2 3 4 5 6 7 8 9 10 11 12 13 14 15 16 17 18 19 20 21 22 23 24 25 26 27 28 29 30 31 32 33 34 35 36 37 38 39 40 41 42 43 44 45 46 47 48 49 50
000
ASUS44 KMEG 042200
RWRTN
TENNESSEE HOURLY STATE WEATHER ROUNDUP
NATIONAL WEATHER SERVICE MEMPHIS TN
400 PM CST SUN DEC 04 2016

TNZ002-004-019-021-049-052-054-088>092-042300-
WEST TENNESSEE

CITY           SKY/WX    TMP DP  RH WIND       PRES   REMARKS
MEMPHIS INTL   CLOUDY    47  45  93 NW5       29.98S FOG
NWS MEMPHIS      N/A     46 N/A N/A MISG        N/A
JACKSON        CLOUDY    46  45  96 NW8       29.97F
DYERSBURG      CLOUDY   N/A N/A N/A CALM      29.96F
PARIS          CLOUDY    43  43 100 W5        29.97S
$$

TNZ008-025-027-028-033-062-065-066-042300-
NORTH MIDDLE TENNESSEE

CITY           SKY/WX    TMP DP  RH WIND       PRES   REMARKS
NASHVILLE      DRIZZLE   48  46  93 SW3       29.96R FOG
CLARKSVILLE    CLOUDY    47  44  90 W6        29.95R FOG
SMYRNA         LGT RAIN  48  47  96 SW3       29.97R FOG
CROSSVILLE     CLOUDY    44  42  93 VRB5      29.94R FOG
$$

TNZ061-075-076-078-094-096-097-042300-
SOUTH MIDDLE TENNESSEE

CITY           SKY/WX    TMP DP  RH WIND       PRES   REMARKS
TULLAHOMA      CLOUDY    46  45  93 S3        29.95R
WINCHESTER     CLOUDY    46  45  93 CALM      29.96R
SHELBYVILLE    CLOUDY    48  48 100 S3        29.97R
$$

TNZ017-018-042-046-047-042300-
NORTHEAST TENNESSEE

CITY           SKY/WX    TMP DP  RH WIND       PRES   REMARKS
TRI CITIES     LGT RAIN  46  43  89 SE5       30.00F FOG
$$

TNZ012-013-036-069-073-074-042300-
CENTRAL EAST TENNESSEE

CITY           SKY/WX    TMP DP  RH WIND       PRES   REMARKS
KNOXVILLE      LGT RAIN  44  42  93 CALM      29.96F FOG
OAK RIDGE      RAIN      44  42  93 CALM      29.98F FOG
GATLINBURG     CLOUDY    43  43 100 CALM      29.96F
$$

TNZ083-085-099-042300-
SOUTHEAST TENNESSEE

CITY           SKY/WX    TMP DP  RH WIND       PRES   REMARKS
CHATTANOOGA    LGT RAIN  46  44  93 S5        29.99S FOG
$$

SKY/WX REPORTED AS FAIR MEANS FEW OR NO CLOUDS BELOW
12 THOUSAND FEET.




USA.gov is the U.S. government's official web portal to all federal, state and local government web resources and services.